SCP
0 0 0 0 0 0 0 0 0 0 0 0 0 0 0 0 0 0 0 0 0 0 0 0 0 0 0 0 0 0 0 0 0 0 0 0 0 0 0 0 0 0 0 0
0 0 0 0 0 0 0 0 0 0 0 0 0 0 0 0 0 0 0 0 0 0 0 0 0 0 0 0 0 0 0 0 0 0 0 0 0 0 0 0 0 0 0 0
0 0 0 0 0 0 0 0 0 0 0 0 0 0 0 0 0 0 0 0 0 0 0 0 0 0 0 0 0 0 0 0 0 0 0 0 0 0 0 0 0 0 0 0
0 0 0 0 0 0 0 0 0 0 0 0 0 0 0 0 0 0 0 0 0 0 0 0 0 0 0 0 0 0 0 0 0 0 0 0 0 0 0 0 0 0 0 0
0 0 0 0 0 0 0 0 0 0 0 0 0 0 0 0 0 0 0 0 0 0 0 0 0 0 0 0 0 0 0 0 0 0 0 0 0 0 0 0 0 0 0 0
0 0 0 0 0 0 0 0 0 0 0 0 0 0 0 0 0 0 0 0 0 0 0 0 0 0 0 0 0 0 0 0 0 0 0 0 0 0 0 0 0 0 0 0
0 0 0 0 0 0 0 0 0 0 0 0 0 0 0 0 0 0 0 0 0 0 0 0 0 0 0 0 0 0 0 0 0 0 0 0 0 0 0 0 0 0 0 0
0 0 0 0 0 0 0 0 0 0 0 0 0 0 0 0 0 0 0 0 0 0 0 0 0 0 0 0 0 0 0 0 0 0 0 0 0 0 0 0 0 0 0 0
0 0 0 0 0 0 0 0 0 0 0 0 0 0 0 0 0 0 0 -0 0 0 0 0 0 0 0 0 0 0 0 0 0 0 0 0 0 0 0 0 0 0 0 0
0 0 0 0 0 0 0 0 0 0 0 0 0 0 0 0 0 0 0 0 0 0 0 0 0 0 0 0 0 0 0 0 0 0 0 0 0 0 0 0 0 0 0 0
0 0 0 0 0 0 0 0 0 0 0 0 0 0 0 0 0 0 0 0 0 0 0 0 0 0 0 0 0 0 0 0 0 0 0 0 0 0 0 0 0 0 0 0
0 0 0 0 0 0 0 0 0 0 0 0 0 0 0 0 0 0 0 0 0 0 0 0 0 0 0 0 0 0 0 0 0 0 0 0 0 0 0 0 0 0 0 0
0 0 0 0 0 0 0 0 0 0 0 0 0 0 0 0 0 0 0 0 0 0 0 0 0 0 0 0 0 0 0 0 0 0 0 0 0 0 0 0 0 0 0 0
0 0 0 0 0 0 0 0 0 0 0 0 0 0 0 0 0 0 0 0 0 0 0 0 0 0 0 0 0 0 0 0 0 0 0 0 0 0 0 0 0 0 0 0
0 0 0 0 0 0 0 0 0 0 0 0 0 0 0 0 0 0 0 0 0 0 0 0 0 0 0 0 0 0 0 0 0 0 0 0 0 0 0 0 0 0 0 0
0 0 0 0 0 0 0 0 0 0 0 0 0 0 0 0 0 0 0 0 0 0 0 0 0 0 0 0 0 0 0 0 0 0 0 0 0 0 0 0 0 0 0 0
0 0 0 0 0 0 0 0 0 0 0 0 0 0 0 0 0 0 0 0 0 0 0 0 0 -0 0 0 0 0 0 0 0 0 0 0 0 0 0 0 0 0 0 0
0 0 0 0 0 0 0 0 0 0 0 0 0 0 0 0 0 0 0 0 0 0 0 0 0 -0 -0 0 0 0 0 0 0 0 0 0 0 0 0 0 0 0 0 0
0 0 0 0 0 0 0 0 0 0 0 0 0 0 0 0 0 0 0 0 0 0 0 0 -0 -0 -0 0 0 0 0 0 0 0 0 0 0 0 0 0 0 0 0 0
0 0 0 0 0 0 0 0 0 0 0 0 0 0 0 0 0 0 0 0 0 0 0 0 0 -0 0 0 0 0 0 0 0 0 0 0 0 0 0 0 0 0 0 0
0 0 0 0 0 0 0 0 0 0 0 0 0 0 0 0 0 0 0 0 0 0 0 0 0 0 0 0 0 0 0 0 0 0 0 0 0 0 0 0 0 0 0 0
0 0 0 0 0 0 0 0 0 0 0 0 0 0 0 0 0 0 0 0 0 0 0 0 0 0 0 0 0 0 0 0 0 0 0 0 0 0 0 0 0 0 0 0
0 0 0 0 0 0 0 0 0 0 0 0 0 0 0 0 0 0 0 0 0 0 0 0 0 0 0 0 0 0 0 0 0 0 0 0 0 0 0 0 0 0 0 0
0 0 0 0 0 0 0 0 0 0 0 0 0 0 0 0 0 0 0 0 0 0 0 0 0 0 0 0 0 0 0 0 0 0 0 0 0 0 0 0 0 0 0 0
0 0 0 0 0 0 0 0 0 0 0 0 0 0 0 0 0 0 0 0 0 0 0 0 0 0 0 0 0 0 0 0 0 0 0 0 0 0 0 0 0 0 0 0
0 0 0 0 0 0 0 0 0 0 0 0 0 0 0 0 0 0 0 0 0 0 0 0 0 0 0 0 0 0 0 0 0 0 0 0 0 0 0 0 0 0 0 0
Wind_Speed
8 10 15 19 20 14 13 15 16 11 6 9 17 20 19 15 14 16 17 16 16 16 15 12 11 11 11 12 13 14 14 14 12 10 10 10 10 10 10 10 12 13 12 12
8 18 18 14 16 15 15 16 16 10 7 8 14 20 20 18 19 18 18 18 17 16 15 12 11 10 11 12 13 13 14 14 14 12 10 9 9 8 9 9 11 13 13 13
18 11 12 15 16 18 19 19 17 12 6 9 11 18 19 18 18 18 19 18 18 17 16 14 12 11 11 12 13 12 14 14 14 14 10 8 7 7 8 10 10 12 13 13
16 14 12 16 19 19 19 17 15 14 11 9 9 15 16 16 17 19 18 17 17 16 15 14 13 12 12 12 11 12 12 13 13 13 12 14 11 11 12 9 9 10 12 13
13 11 15 18 18 18 13 10 13 14 13 13 13 14 16 12 18 18 18 17 17 16 15 15 13 12 11 10 10 10 11 11 12 13 14 14 13 11 9 8 9 10 10 11
12 8 11 14 12 13 9 6 7 9 9 17 20 18 17 14 18 16 15 15 16 15 14 14 13 11 10 9 8 8 9 10 11 12 13 14 15 13 11 10 9 8 7 8
12 11 9 7 9 11 12 10 7 10 12 16 13 17 18 12 13 14 14 14 14 14 13 12 12 11 10 9 9 8 9 10 10 11 12 13 15 14 14 11 10 9 7 7
12 11 13 12 14 12 17 16 12 11 12 11 12 18 15 9 10 11 12 12 11 11 11 10 10 10 9 9 9 9 10 10 10 10 11 11 12 10 9 11 10 9 8 8
10 10 7 11 11 13 12 15 13 9 7 10 12 15 14 7 9 11 11 10 10 10 9 9 8 8 8 8 8 9 10 9 9 10 10 10 11 10 10 10 10 8 7 6
7 7 6 6 7 13 13 10 8 10 10 14 14 18 14 10 12 12 12 12 11 10 9 8 7 7 6 6 7 7 8 9 9 9 9 7 9 10 9 9 9 8 8 7
8 8 6 7 12 14 12 13 10 8 9 11 13 13 7 10 10 11 11 10 9 9 8 7 6 5 5 4 4 5 6 7 7 7 8 8 8 8 8 8 8 7 7 7
9 7 9 12 9 10 12 14 15 12 11 11 13 13 4 6 5 7 7 6 6 6 6 5 5 5 4 4 4 4 4 5 5 6 6 7 7 7 7 7 7 6 7 6
7 7 7 6 7 8 11 13 15 13 10 11 14 14 5 6 6 7 7 7 7 7 7 6 6 5 5 5 4 4 3 3 4 4 5 6 6 6 7 6 6 5 5 5
7 8 10 14 8 6 10 14 15 15 12 14 19 20 15 12 11 11 10 10 10 10 9 8 7 6 5 5 4 4 3 3 3 4 5 5 5 5 5 5 5 5 5 5
6 8 10 13 12 12 14 16 17 19 18 16 19 23 23 18 16 15 13 12 12 12 11 10 8 7 6 5 5 4 4 3 3 4 4 5 4 4 4 4 4 4 4 4
6 7 7 10 13 14 17 20 21 22 21 22 23 26 22 19 15 15 14 12 12 13 12 11 9 8 7 6 5 5 4 4 4 4 4 3 4 4 4 4 4 4 3 3
6 6 7 10 9 9 17 20 22 22 22 22 25 25 19 18 17 15 13 12 13 13 13 11 10 9 7 6 6 6 5 3 4 4 4 3 3 4 4 4 4 4 4 3
10 9 7 7 6 17 13 10 17 21 22 21 22 22 20 19 17 14 13 13 13 12 12 11 9 9 6 5 5 4 4 4 4 4 4 3 3 3 3 4 4 4 3 3
15 12 8 7 12 14 13 10 12 14 18 18 20 21 18 15 13 14 12 12 12 11 10 9 8 7 6 5 4 4 4 4 4 4 4 4 4 4 4 4 4 3 3 3
11 13 10 10 12 14 13 9 8 10 16 14 15 16 14 10 11 11 8 9 9 7 6 6 5 5 5 4 4 5 5 5 5 5 4 4 4 5 5 4 3 3 3 3
8 11 15 16 15 12 10 5 6 11 10 5 8 11 11 12 12 10 9 8 6 5 5 4 4 4 4 4 5 5 5 6 4 3 3 3 3 3 4 4 3 4 4 4
11 10 12 12 15 15 6 6 10 9 5 5 7 9 10 12 11 10 9 7 5 5 5 4 3 4 3 4 5 6 6 4 3 4 4 3 3 2 3 4 3 3 4 4
11 10 8 10 11 6 5 8 7 5 7 8 9 10 10 11 11 9 8 7 5 5 4 3 3 3 2 3 4 5 4 4 4 4 4 4 3 2 3 3 4 4 3 3
9 7 9 11 13 12 10 8 7 7 8 9 10 10 10 11 10 8 7 6 5 4 3 2 2 2 2 1 2 2 3 4 5 5 4 4 4 3 2 2 2 2 3 3
11 7 10 15 14 12 12 11 10 9 9 9 9 9 9 9 8 8 7 6 5 3 2 2 3 3 3 1 1 2 3 5 5 4 4 3 3 3 2 2 1 2 1 2
11 12 14 15 12 11 12 9 9 10 10 10 9 9 8 7 7 7 6 4 3 2 2 2 2 2 2 1 1 2 3 4 5 5 4 3 3 2 2 2 2 2 2 2
Wind_Direction
195 208 214 211 215 233 232 231 237 238 226 229 238 247 248 244 241 244 244 243 242 243 244 239 233 226 222 219 217 215 214 212 207 205 206 210 216 217 218 220 220 220 219 214
205 227 226 221 219 224 229 235 240 245 231 244 256 257 255 248 244 244 245 244 243 244 243 239 235 227 222 220 218 216 215 212 208 208 207 210 213 217 220 221 221 220 219 217
219 231 217 214 218 221 228 232 234 236 244 243 268 264 249 245 242 243 243 245 245 243 244 241 234 230 225 223 220 217 216 214 211 209 206 204 211 217 215 218 219 218 217 216
233 235 218 216 220 219 233 230 235 237 241 247 238 267 251 240 240 238 237 237 240 241 242 242 239 233 228 227 224 221 218 216 213 207 206 205 207 214 218 216 216 216 215 217
224 216 212 220 223 216 231 220 223 231 239 251 238 255 261 235 239 236 233 233 235 237 238 238 238 237 234 230 226 222 219 217 214 208 208 209 217 223 224 218 218 217 214 215
237 231 224 227 225 219 212 204 224 230 235 245 234 237 260 231 236 237 232 230 232 234 234 236 239 239 239 233 225 223 220 219 215 210 210 212 217 221 221 219 217 216 214 214
229 228 223 212 203 205 201 194 207 214 220 239 225 229 250 239 232 233 233 232 233 233 233 234 235 236 238 235 228 221 220 221 216 213 213 214 217 219 221 221 219 217 215 215
217 226 209 207 208 204 205 208 216 225 231 237 217 233 248 238 231 231 236 240 240 238 235 236 239 240 239 237 232 226 222 223 218 214 214 216 218 219 222 222 220 218 219 219
218 233 213 213 211 201 206 218 230 249 260 258 239 246 257 239 230 228 231 233 236 238 237 238 240 244 246 241 236 231 226 225 222 218 215 216 215 216 218 219 220 220 221 221
227 238 225 216 218 217 217 207 203 217 232 241 245 244 245 223 222 223 226 231 237 241 242 242 246 249 249 247 241 234 230 228 225 221 217 216 216 215 215 216 216 217 218 216
225 231 226 206 210 209 204 210 216 220 225 237 248 246 240 234 226 224 231 237 240 243 244 248 249 250 253 253 249 238 230 227 225 221 217 214 215 214 213 215 216 216 217 216
214 227 239 234 240 239 225 219 215 221 228 234 249 253 208 227 238 237 240 248 254 257 262 265 263 260 254 249 243 237 233 226 224 219 214 212 211 208 208 211 213 212 215 215
203 213 227 231 226 217 223 225 226 235 238 233 241 252 230 240 249 251 258 268 274 270 270 269 265 259 256 253 249 244 234 231 227 212 206 205 205 205 207 209 208 207 207 208
217 221 225 234 241 224 226 231 230 229 237 242 244 257 258 259 263 264 265 267 271 271 268 264 262 259 253 249 248 246 244 228 218 209 201 200 205 206 206 203 202 201 197 199
217 235 238 250 255 246 246 244 240 236 237 245 254 258 262 268 271 271 270 267 264 263 263 260 256 253 251 251 250 247 245 230 214 208 204 204 200 197 196 195 194 190 186 189
222 237 240 252 251 248 252 246 243 243 242 245 254 260 263 267 268 269 267 262 259 260 260 259 254 248 245 244 244 244 243 226 207 206 207 201 191 185 185 186 180 171 172 173
219 219 234 252 259 255 245 237 236 238 237 240 247 255 264 263 260 260 262 260 258 258 259 256 250 245 241 240 237 239 237 214 200 202 200 191 185 177 177 174 167 166 170 167
224 226 234 244 237 244 249 242 235 240 244 242 246 256 260 262 264 265 263 262 260 259 259 257 251 249 245 238 232 234 223 203 196 193 189 185 180 174 163 160 167 167 166 165
221 218 225 226 241 257 264 245 225 232 247 245 248 256 262 267 269 265 266 262 258 259 260 257 248 247 242 233 221 206 201 195 193 195 192 185 181 174 163 164 168 158 152 152
219 216 221 227 235 242 249 238 227 236 252 247 247 256 264 267 263 266 276 268 267 268 264 258 252 240 231 228 199 190 198 198 203 202 194 181 179 176 168 161 152 139 139 136
199 212 221 232 241 251 258 237 178 215 246 258 248 252 258 255 259 279 285 279 273 272 268 261 248 241 236 213 190 192 198 209 203 178 164 159 169 173 162 147 140 136 132 132
213 215 219 225 235 244 224 186 209 241 270 270 267 265 264 264 273 281 278 277 275 272 267 254 244 249 241 203 195 197 204 196 166 158 153 152 155 159 149 143 137 132 135 139
228 225 227 224 239 263 221 229 245 261 266 274 278 279 275 275 274 278 282 279 276 270 260 239 224 232 233 208 203 205 197 162 154 150 149 145 140 140 145 152 147 140 143 152
246 247 247 252 254 259 259 264 265 268 271 279 281 279 275 273 273 275 276 274 271 263 251 218 192 215 239 221 199 198 163 151 150 156 154 146 145 143 137 140 142 149 159 164
243 237 246 255 263 271 262 258 268 276 281 283 284 282 276 273 271 269 269 266 262 256 235 208 213 224 234 211 183 154 154 153 157 157 153 148 146 146 144 134 145 165 181 180
235 235 240 252 257 255 264 270 273 273 275 276 278 283 281 267 266 269 267 263 256 244 220 209 216 221 228 197 178 157 161 165 161 161 161 158 153 150 153 150 127 100 128 114